Temp
8 8 8 8 8 9 9 9 10 10 11 11 11 11 11 11 12 12 12 12 13 13 14 14 14 14 14 14 15 14 14 14 13 13 11 11 10 11 11 11 11 11 11 11 11
8 8 8 8 8 9 9 9 10 10 11 11 11 11 11 11 12 12 12 13 13 13 13 13 14 14 14 14 14 13 14 12 10 10 9 11 11 9 9 10 11 10 10 10 10
8 8 8 8 9 9 9 10 10 10 11 11 11 11 12 12 12 12 13 13 13 13 13 14 14 14 14 14 14 12 11 10 11 11 10 10 10 8 9 10 9 9 9 9 8
8 8 8 9 9 9 9 10 10 10 11 11 11 11 12 12 10 12 13 13 13 13 14 14 14 14 14 13 13 10 10 10 10 10 10 10 10 10 9 9 8 8 7 7 7
7 8 8 9 9 9 9 9 10 10 11 11 11 11 11 11 12 12 13 13 13 13 14 13 13 13 12 12 10 9 9 9 9 9 9 9 9 10 9 7 7 6 6 6 6
7 8 8 8 9 9 9 10 10 10 10 11 11 11 11 11 12 12 13 13 13 13 13 13 13 13 12 11 10 9 9 8 8 9 9 8 9 8 6 5 5 5 5 6 6
7 7 8 8 9 9 10 10 10 10 10 11 11 11 11 12 12 12 12 12 12 12 12 12 12 12 11 10 10 9 9 8 8 8 8 8 7 6 5 3 3 4 5 5 4
7 7 8 8 9 9 9 10 10 10 10 11 11 11 12 12 12 12 12 12 12 12 12 11 11 11 10 10 9 9 9 10 9 8 8 8 3 4 2 1 3 4 4 3 3
6 7 8 8 9 9 9 10 10 10 10 11 11 11 11 12 12 12 11 12 12 12 11 11 11 10 10 10 10 9 10 9 8 9 8 6 2 3 2 1 2 3 3 3 2
6 7 7 8 8 9 9 9 10 10 10 10 11 11 11 11 11 11 11 12 11 11 10 10 10 10 10 11 12 10 9 8 7 5 7 5 4 2 1 1 2 2 3 2 3
6 6 7 8 8 8 9 9 9 10 10 11 11 11 11 11 11 11 11 11 10 10 9 9 10 10 9 9 8 8 8 7 5 6 4 2 2 1 1 0 1 2 2 2 2
6 6 7 8 8 8 9 9 10 10 10 10 11 11 11 11 10 10 11 10 10 9 9 9 8 9 8 8 7 7 7 6 5 5 3 3 2 1 0 2 2 2 2 2 1
6 6 6 7 8 8 9 9 9 9 9 10 10 10 10 10 10 10 10 10 10 9 9 9 8 8 8 7 7 7 7 6 5 4 3 3 2 1 1 2 2 2 2 1 1
5 6 6 6 7 8 8 9 9 9 9 9 9 9 9 9 9 10 9 9 9 8 8 7 7 7 7 7 7 7 6 6 5 5 7 4 9 3 1 -1 1 1 1 1 1
5 6 6 6 7 8 8 8 9 8 10 8 8 8 9 9 9 9 9 9 8 8 8 7 7 7 6 7 7 6 7 6 5 6 5 5 5 7 2 -0 -2 0 0 0 0
5 5 6 6 7 7 8 8 8 8 9 8 8 8 8 8 9 9 9 9 8 8 7 7 7 7 7 6 6 6 6 6 5 6 7 8 6 7 3 1 -2 -0 0 0 -0
4 5 5 6 6 7 7 7 7 8 8 8 7 8 8 8 8 8 8 8 7 7 7 6 6 6 6 6 6 6 6 9 9 8 10 5 5 4 3 2 1 0 -0 -1 -0
4 4 5 6 6 6 7 6 7 8 7 8 8 8 8 8 8 8 8 7 7 7 6 7 7 5 6 5 6 6 6 8 9 10 10 4 8 3 3 2 1 -0 -1 -1 -0
3 4 5 5 6 6 6 5 7 8 9 8 7 7 8 8 8 7 7 7 7 7 6 6 6 5 6 6 5 5 6 6 5 5 6 8 3 2 3 1 1 -0 -1 -0 -0
3 4 4 5 5 5 5 6 7 8 8 8 8 8 7 7 7 7 7 6 6 6 6 6 5 5 5 5 5 4 5 5 5 7 7 8 6 7 2 -2 1 -0 -0 -1 -1
2 3 4 4 4 5 5 6 7 8 8 8 8 8 8 8 7 7 6 6 6 5 5 5 5 4 4 4 4 4 4 4 4 4 7 8 8 3 2 1 -0 -0 -1 -1 -1
2 3 4 4 4 4 5 5 7 7 7 8 8 8 8 7 7 7 6 6 5 5 4 5 4 4 3 4 4 4 3 3 4 6 3 3 4 2 1 0 -0 -1 -2 -2 -2
2 3 3 4 4 4 5 5 6 7 7 7 7 7 7 7 7 6 6 5 5 4 4 4 3 5 3 3 4 3 4 3 3 2 3 4 4 1 0 -0 -1 -2 -2 -2 -2
2 2 3 3 4 4 5 5 6 6 6 6 7 7 7 6 6 6 5 5 5 4 4 4 4 4 5 3 3 2 2 2 1 2 3 3 3 1 -0 -1 -2 -2 -2 -2 -3
1 2 4 3 3 4 4 5 5 5 5 6 6 6 6 6 5 5 5 5 4 4 3 3 2 3 3 3 3 3 2 1 0 1 1 2 0 -0 -2 -2 -2 -3 -2 -3 -4
2 3 4 4 4 4 4 4 5 5 5 5 5 5 5 5 4 5 4 4 4 4 3 3 1 2 2 3 2 2 3 1 -0 -0 -1 -1 -1 -2 -2 -3 -3 -2 -3 -3 -4
3 3 3 4 4 3 3 4 4 4 4 5 5 4 4 4 4 4 3 3 3 3 2 2 2 1 2 2 1 1 4 2 2 2 0 -1 -1 -2 -3 -3 -2 -3 -3 -4 -4
Height
3168 3171 3173 3175 3176 3178 3180 3181 3182 3184 3186 3187 3188 3189 3190 3191 3192 3192 3192 3193 3192 3192 3192 3191 3192 3193 3193 3193 3193 3193 3197 3197 3198 3198 3198 3196 3195 3195 3194 3193 3193 3192 3192 3192 3191
3168 3169 3172 3175 3176 3177 3179 3181 3182 3184 3186 3187 3188 3189 3190 3191 3192 3193 3194 3193 3193 3193 3192 3192 3193 3193 3193 3193 3193 3194 3196 3196 3194 3194 3195 3195 3194 3195 3194 3191 3191 3191 3191 3191 3190
3166 3168 3170 3174 3176 3177 3179 3181 3182 3184 3186 3187 3189 3190 3191 3192 3193 3194 3194 3194 3193 3193 3193 3193 3193 3193 3192 3192 3192 3191 3194 3193 3191 3193 3195 3192 3192 3193 3193 3191 3190 3190 3190 3190 3189
3164 3167 3169 3172 3174 3176 3178 3180 3182 3184 3185 3187 3189 3190 3191 3192 3197 3193 3193 3192 3192 3192 3193 3193 3193 3192 3192 3191 3191 3189 3189 3189 3190 3193 3192 3192 3191 3190 3190 3190 3190 3190 3189 3189 3188
3162 3165 3168 3170 3173 3175 3177 3179 3181 3183 3184 3186 3188 3189 3190 3192 3193 3192 3192 3191 3191 3192 3192 3191 3191 3190 3189 3189 3190 3189 3188 3189 3191 3191 3191 3192 3190 3190 3190 3189 3190 3190 3189 3188 3187
3158 3163 3166 3168 3171 3174 3176 3178 3180 3182 3183 3185 3187 3188 3191 3192 3191 3191 3191 3190 3190 3190 3190 3189 3188 3187 3187 3187 3189 3190 3189 3190 3191 3191 3191 3191 3190 3190 3190 3190 3190 3190 3189 3187 3185
3155 3160 3163 3167 3170 3172 3175 3177 3179 3181 3182 3184 3186 3188 3190 3191 3190 3190 3190 3189 3189 3189 3188 3187 3187 3186 3187 3188 3189 3190 3194 3192 3191 3192 3190 3190 3189 3188 3189 3190 3190 3189 3188 3186 3184
3153 3156 3161 3165 3168 3171 3173 3176 3178 3180 3182 3184 3186 3187 3188 3189 3189 3189 3188 3188 3188 3187 3186 3185 3185 3186 3187 3188 3189 3193 3194 3194 3190 3189 3189 3190 3190 3188 3189 3190 3189 3188 3187 3185 3182
3150 3154 3158 3162 3166 3169 3172 3175 3177 3179 3181 3183 3186 3187 3188 3188 3189 3188 3188 3186 3186 3185 3185 3185 3186 3187 3188 3191 3192 3192 3192 3192 3190 3187 3187 3189 3187 3187 3189 3189 3188 3187 3185 3183 3181
3147 3151 3155 3160 3163 3167 3170 3173 3176 3178 3181 3183 3184 3188 3186 3187 3187 3187 3186 3185 3184 3184 3185 3186 3186 3189 3190 3191 3189 3191 3191 3191 3189 3187 3184 3183 3184 3186 3188 3188 3186 3185 3183 3181 3179
3144 3148 3152 3157 3161 3164 3168 3171 3177 3179 3179 3181 3183 3184 3184 3185 3185 3185 3183 3183 3183 3184 3186 3186 3190 3190 3189 3189 3188 3189 3190 3190 3188 3187 3187 3186 3187 3187 3187 3187 3185 3183 3181 3179 3177
3140 3146 3149 3154 3158 3162 3165 3169 3173 3177 3178 3179 3181 3182 3183 3183 3183 3182 3183 3184 3184 3184 3185 3188 3188 3187 3188 3188 3188 3189 3190 3189 3188 3187 3188 3188 3188 3187 3185 3183 3182 3180 3178 3177 3174
3136 3143 3147 3150 3155 3159 3163 3167 3171 3173 3176 3178 3179 3180 3182 3182 3181 3182 3182 3182 3183 3185 3186 3188 3188 3187 3188 3189 3190 3189 3191 3190 3190 3188 3189 3189 3189 3186 3182 3180 3179 3177 3176 3173 3171
3132 3139 3144 3147 3154 3156 3160 3164 3168 3173 3177 3178 3178 3178 3180 3180 3182 3182 3182 3184 3184 3186 3186 3187 3187 3187 3188 3189 3189 3190 3188 3188 3187 3188 3187 3186 3181 3184 3182 3178 3177 3175 3173 3170 3168
3128 3134 3141 3146 3149 3153 3159 3162 3167 3172 3174 3177 3176 3176 3177 3179 3181 3181 3182 3182 3184 3185 3187 3187 3187 3187 3188 3188 3187 3188 3186 3186 3187 3187 3186 3185 3186 3177 3178 3178 3175 3172 3169 3167 3165
3124 3131 3137 3143 3146 3150 3155 3160 3166 3173 3168 3170 3171 3174 3177 3178 3179 3180 3182 3183 3183 3184 3184 3185 3186 3187 3186 3186 3186 3186 3185 3184 3184 3186 3182 3178 3181 3175 3177 3177 3172 3169 3167 3165 3162
3120 3127 3133 3139 3144 3147 3152 3158 3166 3165 3166 3168 3169 3172 3175 3177 3178 3180 3181 3182 3183 3186 3185 3185 3185 3185 3186 3186 3185 3185 3186 3181 3180 3179 3172 3176 3178 3173 3169 3169 3168 3167 3165 3162 3159
3116 3123 3129 3135 3140 3145 3150 3157 3159 3157 3160 3162 3166 3170 3174 3175 3177 3179 3179 3180 3181 3182 3184 3185 3186 3185 3184 3185 3185 3185 3185 3183 3176 3171 3172 3175 3170 3171 3166 3165 3165 3163 3161 3160 3157
3112 3120 3125 3131 3137 3142 3148 3151 3151 3153 3156 3159 3165 3169 3171 3173 3176 3177 3178 3179 3180 3181 3185 3184 3184 3182 3182 3183 3185 3183 3184 3182 3181 3177 3176 3168 3168 3166 3163 3163 3162 3161 3161 3158 3154
3108 3116 3122 3128 3133 3139 3145 3146 3148 3149 3153 3158 3161 3165 3168 3171 3174 3176 3177 3179 3180 3180 3180 3181 3183 3181 3181 3181 3181 3181 3182 3182 3180 3176 3169 3164 3166 3163 3162 3162 3161 3160 3159 3155 3150
3105 3112 3118 3124 3130 3135 3139 3143 3146 3148 3151 3156 3158 3162 3166 3168 3172 3174 3176 3178 3178 3178 3179 3180 3181 3181 3179 3179 3180 3181 3180 3179 3179 3178 3171 3164 3161 3160 3160 3159 3160 3158 3154 3149 3144
3100 3107 3113 3121 3127 3129 3134 3139 3143 3146 3150 3153 3157 3160 3163 3166 3169 3172 3174 3175 3176 3177 3177 3177 3178 3179 3178 3175 3175 3176 3176 3177 3177 3174 3174 3171 3163 3157 3158 3157 3157 3153 3149 3144 3139
3095 3103 3110 3117 3121 3124 3130 3135 3141 3144 3147 3152 3155 3158 3161 3163 3167 3169 3170 3172 3173 3174 3175 3175 3176 3176 3174 3175 3173 3173 3173 3173 3172 3171 3168 3168 3160 3156 3156 3153 3151 3148 3144 3140 3135
3092 3100 3106 3113 3117 3122 3126 3132 3138 3142 3146 3150 3153 3156 3159 3160 3163 3166 3168 3169 3170 3170 3172 3172 3172 3173 3173 3173 3172 3172 3170 3169 3169 3167 3164 3162 3160 3153 3152 3150 3147 3144 3140 3136 3132
3086 3093 3098 3104 3112 3119 3124 3132 3136 3139 3143 3147 3151 3154 3156 3158 3160 3162 3165 3166 3167 3167 3168 3169 3169 3167 3167 3167 3167 3167 3165 3164 3162 3162 3161 3158 3156 3155 3149 3147 3145 3142 3138 3133 3128
3081 3088 3094 3102 3110 3116 3121 3128 3133 3136 3142 3145 3149 3150 3153 3157 3158 3160 3162 3163 3163 3164 3164 3165 3165 3163 3163 3161 3161 3160 3158 3156 3155 3154 3152 3151 3149 3149 3145 3143 3142 3138 3134 3129 3125
3074 3085 3094 3099 3107 3113 3119 3125 3130 3134 3139 3142 3146 3148 3151 3152 3154 3156 3157 3159 3159 3160 3160 3161 3162 3161 3160 3158 3156 3154 3149 3149 3149 3148 3148 3147 3146 3142 3142 3140 3138 3133 3130 3126 3121
Wind_Speed
20 18 16 16 15 15 13 13 13 12 11 10 9 9 8 8 8 7 5 6 7 7 7 8 7 6 5 3 3 3 1 2 1 2 2 5 4 1 2 3 6 7 6 3 2
21 20 18 16 16 15 14 12 12 11 10 9 8 7 6 6 8 7 6 8 8 7 8 7 6 6 5 4 2 4 2 2 1 1 4 5 2 7 4 7 8 5 4 2 3
22 21 20 17 16 15 14 13 12 11 10 9 7 6 6 8 9 7 7 7 6 5 4 3 5 6 6 5 4 3 4 5 4 1 6 3 4 11 2 7 8 5 3 2 3
24 23 21 20 17 15 14 13 12 11 10 9 8 7 9 12 5 6 5 4 3 3 4 5 6 6 6 5 2 7 4 3 3 4 3 8 11 10 8 9 7 4 3 3 5
26 24 22 21 19 16 14 12 11 11 10 10 10 10 12 7 7 4 2 3 6 7 8 9 8 6 4 2 7 9 7 6 11 9 10 10 9 6 8 8 5 2 2 5 10
28 26 24 22 20 17 14 12 11 10 10 11 12 12 10 7 3 1 2 5 9 10 11 10 7 4 2 2 5 11 8 9 10 6 4 5 7 5 7 7 3 3 8 10 8
30 28 25 22 19 17 14 12 11 10 11 12 12 12 9 5 4 3 6 8 8 11 10 8 6 5 5 5 6 13 10 8 7 3 1 3 4 8 8 6 6 9 9 7 7
31 29 27 24 21 18 16 13 12 12 12 12 12 11 8 5 4 6 7 9 9 9 8 6 6 7 6 8 13 8 6 7 10 2 5 7 6 9 9 6 8 8 7 8 9
32 30 28 25 23 20 17 15 14 13 13 12 11 9 7 6 4 4 8 10 10 8 5 4 4 7 7 7 5 4 4 2 5 9 6 9 13 11 9 6 6 7 7 9 10
33 31 29 27 24 21 19 16 15 15 14 12 9 5 7 4 4 6 7 8 7 3 2 2 4 6 5 0 3 3 3 2 1 8 3 8 11 12 9 6 6 7 9 10 13
34 31 30 28 25 22 20 18 16 15 15 13 10 10 5 5 5 5 4 3 1 1 3 2 4 5 3 3 3 2 3 6 4 3 9 13 15 12 8 5 5 9 10 13 17
34 32 31 29 27 24 22 20 18 16 16 14 11 8 5 4 2 4 3 3 3 4 3 5 5 3 2 3 4 6 6 7 3 4 7 12 11 8 6 10 10 11 14 16 18
35 33 30 29 27 25 23 21 20 16 14 14 11 8 4 2 2 3 5 5 7 5 8 5 6 3 2 3 4 5 2 6 5 5 10 12 7 8 8 12 14 16 18 20 24
36 34 31 29 27 25 24 23 22 17 8 13 10 8 5 6 5 5 5 4 5 6 8 5 6 2 2 1 1 3 4 3 10 8 4 16 1 14 11 7 15 18 20 22 24
36 34 32 30 28 27 24 24 22 20 7 10 11 9 8 6 6 3 2 2 4 5 3 4 6 3 1 5 4 4 7 3 9 10 5 13 10 5 16 8 6 19 22 23 26
36 34 32 29 28 26 26 24 23 11 6 13 14 13 10 7 6 6 3 2 1 3 4 5 6 6 6 5 5 6 7 6 6 9 9 9 12 9 12 13 9 17 21 23 28
36 34 32 30 28 27 27 27 17 8 11 15 17 14 11 10 6 4 2 1 3 3 2 3 5 6 5 4 5 4 4 6 6 6 3 4 7 4 17 19 17 18 20 24 31
36 34 32 31 28 28 29 29 11 15 15 20 20 19 12 8 6 4 3 2 1 3 3 5 3 4 3 4 4 6 4 5 5 4 6 4 6 3 11 13 15 18 21 27 32
36 35 32 32 31 30 30 22 9 17 22 25 24 15 10 6 5 3 2 3 3 4 2 1 2 5 5 5 4 5 2 4 4 8 5 6 5 11 16 14 15 18 22 27 34
35 35 32 32 32 31 30 18 14 22 25 26 13 13 10 10 6 3 2 3 2 2 0 1 2 5 5 4 5 4 4 3 2 4 5 4 9 5 10 8 13 15 23 29 30
34 34 33 33 33 32 30 19 18 23 28 24 15 16 13 11 7 4 4 3 3 3 1 5 2 4 5 4 4 4 4 4 5 5 5 7 3 7 9 10 10 22 26 27 31
35 33 34 33 32 34 30 26 20 26 27 20 17 13 14 12 8 5 5 5 4 7 7 6 3 4 6 9 9 9 9 7 6 3 7 8 9 16 9 10 21 24 25 28 31
38 35 33 34 34 32 32 27 21 27 26 21 20 16 12 12 7 7 6 6 6 6 3 4 2 3 3 5 5 5 8 10 13 14 15 11 6 12 15 23 23 23 26 30 29
37 31 32 35 34 31 32 27 24 26 25 21 18 16 14 12 10 6 7 6 7 7 7 8 8 8 9 7 9 12 15 15 12 12 16 19 20 24 24 21 23 22 26 28 28
39 35 37 38 35 29 26 23 23 26 24 21 18 17 15 13 11 11 10 10 11 11 11 10 10 13 15 17 17 17 18 17 19 20 17 16 16 14 20 21 18 21 27 26 25
44 40 36 18 29 28 26 25 25 23 20 21 19 17 16 12 10 10 11 12 13 12 13 14 11 14 14 17 19 21 20 21 21 22 23 23 23 20 19 13 18 25 26 25 24
47 43 35 33 24 28 29 26 24 20 20 19 20 18 16 14 14 13 13 13 14 13 14 14 13 9 8 14 14 17 11 11 10 12 12 11 9 16 13 14 21 27 26 24 23
Wind_Direction
184 182 183 176 170 165 161 156 149 144 141 138 140 143 140 113 113 112 88 113 100 84 85 74 59 62 66 83 112 162 180 158 134 80 341 13 59 184 47 164 173 197 192 222 296
190 183 184 184 176 170 167 164 159 155 152 150 153 149 137 129 109 99 119 108 92 79 63 49 43 44 34 31 17 78 121 120 123 58 62 337 324 113 143 180 175 170 174 214 271
196 188 184 187 184 176 173 172 167 162 161 158 163 157 147 141 133 137 126 106 96 80 64 40 3 356 330 318 308 51 124 99 250 303 119 101 159 127 112 166 135 134 147 191 258
197 195 188 187 188 184 179 178 175 171 168 165 171 167 160 153 177 140 110 84 51 19 349 334 320 305 290 281 267 96 170 175 93 110 168 163 141 175 166 135 129 142 167 217 254
200 199 195 190 190 189 187 185 183 177 174 173 171 161 156 167 160 139 96 10 343 334 330 330 330 320 277 250 104 107 118 115 93 107 123 149 168 208 135 129 138 177 232 253 268
200 201 200 196 193 193 193 192 191 185 180 173 173 172 172 174 174 190 316 323 329 332 333 337 341 331 244 210 157 147 142 127 120 116 123 212 172 180 138 139 179 222 257 269 279
200 202 200 200 196 195 197 196 197 192 182 177 175 174 181 197 205 271 305 312 320 323 336 352 30 78 115 111 128 142 133 111 112 139 216 193 154 144 147 154 242 258 261 272 299
203 201 201 200 198 198 199 198 197 193 186 179 179 180 190 199 239 281 296 304 322 335 344 13 55 83 107 123 120 138 159 214 266 336 249 186 154 162 144 139 242 257 274 297 303
204 201 201 200 199 198 200 199 194 192 187 182 185 191 217 234 250 281 299 311 326 337 355 40 67 88 95 128 135 183 188 219 293 275 263 183 153 167 151 141 231 255 278 292 315
207 200 199 201 200 198 199 197 192 189 187 186 191 205 233 239 274 298 308 310 316 345 55 82 88 81 80 174 246 204 188 53 87 22 67 159 154 152 146 152 222 262 279 298 313
210 200 198 198 200 199 197 194 190 188 185 186 196 212 220 259 297 315 339 338 336 143 134 121 111 121 114 142 124 114 128 132 117 90 83 119 130 138 144 147 233 263 287 306 316
207 205 197 197 198 199 196 193 186 196 189 194 195 210 227 268 338 37 43 91 131 175 156 106 136 159 119 45 83 111 121 133 159 185 140 142 139 149 181 230 253 275 289 303 312
203 207 202 198 199 196 195 190 186 184 184 192 194 198 207 192 98 92 93 106 126 152 147 164 173 163 58 17 100 109 145 194 192 158 150 159 179 185 230 253 267 278 291 300 307
201 204 206 201 198 196 193 188 186 181 171 188 190 186 188 164 123 111 114 119 138 158 140 139 175 162 76 315 29 240 331 210 187 171 244 199 243 215 211 241 263 275 284 296 306
200 202 207 203 198 194 190 186 182 174 197 194 193 185 162 162 158 108 115 128 172 175 149 216 181 194 244 267 290 242 310 283 203 221 262 216 251 168 209 222 272 273 284 298 311
200 201 203 205 198 190 186 181 173 178 210 174 171 158 146 144 135 125 107 107 137 171 199 212 212 218 238 253 277 293 315 316 201 224 249 225 231 196 216 226 261 276 288 304 317
198 200 198 202 198 187 182 175 170 208 184 172 170 162 157 142 130 117 103 124 169 144 162 162 218 229 235 279 286 305 286 244 216 205 316 171 234 264 231 249 263 280 298 314 328
197 199 196 198 196 187 181 177 192 195 165 172 166 154 153 143 133 123 98 85 153 164 156 207 196 206 219 217 238 283 243 301 291 296 329 244 259 208 265 274 281 296 313 326 325
194 199 196 195 191 187 183 187 200 188 183 166 155 154 153 155 151 127 92 139 119 98 140 168 200 227 244 257 269 276 253 250 281 283 270 240 273 281 277 281 289 305 321 321 322
192 197 197 195 188 186 188 194 204 183 171 161 156 167 159 159 146 135 136 170 165 347 155 173 234 247 263 277 271 230 261 299 257 280 276 239 273 292 271 259 302 312 314 320 326
190 194 196 194 189 188 195 199 192 180 171 165 168 162 167 167 166 175 187 212 256 174 325 318 220 251 269 239 221 280 270 261 256 261 292 303 321 263 267 287 297 311 317 324 330
189 192 193 193 189 194 193 193 188 180 177 179 181 180 174 174 180 200 214 218 244 280 290 294 258 240 237 270 266 257 248 238 253 243 250 276 282 282 273 283 311 317 321 329 331
188 192 191 194 194 193 195 195 190 182 182 186 187 193 187 184 183 212 238 260 263 261 246 286 239 277 262 296 259 244 259 253 257 266 262 267 294 289 293 308 314 317 325 328 329
184 185 189 195 198 198 194 192 194 193 193 194 195 198 196 196 207 208 236 264 270 264 260 279 266 243 266 285 268 274 279 276 247 259 272 257 278 296 294 305 310 318 324 326 328
186 188 189 194 197 199 195 202 195 196 201 199 206 207 212 207 211 227 247 261 266 269 270 275 267 272 269 269 273 275 274 262 249 257 264 273 288 286 284 298 303 318 323 324 324
188 189 188 179 197 197 194 198 202 199 206 208 216 220 220 224 227 243 243 247 255 260 261 266 266 278 280 277 281 281 281 266 257 261 265 274 278 266 287 290 312 321 323 322 322
194 196 196 207 207 205 200 203 203 204 212 221 228 228 228 231 237 244 248 249 253 257 254 251 257 269 274 284 299 287 277 253 261 291 285 273 270 281 286 305 317 321 321 321 323